Tracking 31027 objects as of 19-Jul-2025
HD Live streaming from Space Station
objects crossing your sky now

OBJECT K

Track OBJECT K now!
10-day predictions


NORAD ID: 42834
Int'l Code: 2017-042K
Perigee: 552.5 km
Apogee: 567.9 km
Inclination: 97.4 °
Period: 95.7 minutes
Semi major axis: 6931 km
RCS: Unknown
Launch date: July 14, 2017
Source: (TBD)
Launch site: TYURATAM MISSILE AND SPACE COMPLEX (TTMTR)
Your satellite tracking list
SES-6
Track 1 satellite(s)




NASA's NSSDC Master Catalog

Two Line Element Set (TLE):
1 42834U 17042K   25199.44039295  .00003082  00000-0  22408-3 0  9999
2 42834  97.3887   8.7642 0011083 118.5261 241.7083 15.04483435436723
Source of the keplerian elements: AFSPC